User: anonymous   Login
Location: Pella
(41.4080°N, 92.9160°W)
Time: 03:10:05
(UTC-05:00)
Language:

ASTRO E2 - Orbit

View from above orbital plane
View from above orbital plane
View from above satellite
View from above satellite

Ground track
Ground track

The orbit data is extracted from the following two-line orbital elements,

1 28773U 05025A   18199.56154492 +.00000571 +00000-0 +24123-4 0  9992
2 28773 031.3818 244.2936 0004648 007.9687 352.1033 15.16610717717582
Epoch (UTC): 18 July 2018 13:28:37
Eccentricity: 0.0004648
inclination: 31.3818°
perigee height: 513 km
apogee height: 519 km
right ascension of ascending node: 244.2936°
argument of perigee: 7.9687°
revolutions per day: 15.16610717
mean anomaly at epoch: 352.1033°
orbit number at epoch: 71758

The dashed part of the orbit path shows where the satellite is in the earth's shadow,  

DLR